Weather History for Orlando, FL

Change the Weather History Date:

Sunday, March 10, 2013

  Actual Average Record
Temperature  
Mean Temperature 68 °F -  
Max Temperature 78 °F 75 °F 86 °F (2009)
Min Temperature 57 °F 55 °F 45 °F (2005)
Cooling Degree Days 2    
Growing Degree Days 18 (Base 50)    
Moisture  
Dew Point 53 °F    
Average Humidity 63    
Maximum Humidity 87    
Minimum Humidity 37    
Precipitation  
Precipitation 0.00 in - - ()
Sea Level Pressure  
Sea Level Pressure 30.16 in    
Wind  
Wind Speed 7 mph (East)    
Max Wind Speed 18 mph    
Max Gust Speed 26 mph    
Visibility 10 miles    
Events      
Averages and records for this station are not official NWS values.
T = Trace of Precipitation, MM = Missing Value Source: NWS Daily Summary

Daily Weather History Graph

Daily Weather History Graph

Search for Another Location

Airport:

Trip Planner

Search our weather history database for the weather conditions in past years. The results will help you decide how hot, cold, wet, or windy it might be!

Date:

Astronomy

Mar. 10, 2013 Rise Set
Actual Time 7:40 AM EDT 7:31 PM EDT
Civil Twilight 7:16 AM EDT 7:54 PM EDT
Nautical Twilight 6:49 AM EDT 8:21 PM EDT
Astronomical Twilight 6:22 AM EDT 8:49 PM EDT
Moon 6:36 AM EDT (3/10) 6:38 PM EDT (3/10)
Length of Visible Light 12h 37m
Length of Day
11h 50m
Waning Crescent, 2% of the Moon is Illuminated
Mar 10
Waning Crescent
Mar 11
New
Mar 19
First Quarter
Mar 27
Full
Apr 3
Last Quarter

Hourly Weather History & Observations

Time (EDT) Temp. Dew Point Humidity Pressure Visibility Wind Dir Wind Speed Gust Speed Precip Events Conditions
12:53 AM 57.9 °F 53.1 °F 84% 30.20 in 10.0 mi NE 3.5 mph - N/A   Clear
1:53 AM 57.0 °F 52.0 °F 83% 30.18 in 10.0 mi NE 3.5 mph - N/A   Clear
3:53 AM 57.9 °F 53.1 °F 84% 30.17 in 10.0 mi Calm Calm - N/A   Scattered Clouds
5:53 AM 57.0 °F 53.1 °F 87% 30.17 in 10.0 mi Calm Calm - N/A   Clear
6:53 AM 57.0 °F 52.0 °F 83% 30.17 in 10.0 mi NNE 4.6 mph - N/A   Clear
8:53 AM 62.1 °F 53.1 °F 72% 30.20 in 10.0 mi NE 4.6 mph - N/A   Clear
9:53 AM 68.0 °F 53.1 °F 59% 30.21 in 10.0 mi ENE 8.1 mph - N/A   Clear
10:53 AM 71.1 °F 53.1 °F 53% 30.22 in 10.0 mi ENE 11.5 mph - N/A   Mostly Cloudy
11:53 AM 73.0 °F 55.0 °F 53% 30.18 in 10.0 mi East 13.8 mph 19.6 mph N/A   Mostly Cloudy
12:53 PM 77.0 °F 52.0 °F 42% 30.15 in 10.0 mi ESE 18.4 mph 26.5 mph N/A   Mostly Cloudy
1:53 PM 78.1 °F 51.1 °F 39% 30.15 in 10.0 mi ESE 16.1 mph 21.9 mph N/A   Scattered Clouds
2:53 PM 78.1 °F 50.0 °F 37% 30.12 in 10.0 mi East 13.8 mph 23.0 mph N/A   Scattered Clouds
3:53 PM 78.1 °F 50.0 °F 37% 30.12 in 10.0 mi ESE 13.8 mph 20.7 mph N/A   Partly Cloudy
4:53 PM 77.0 °F 53.1 °F 43% 30.12 in 10.0 mi East 15.0 mph 20.7 mph N/A   Mostly Cloudy
5:53 PM 73.0 °F 54.0 °F 51% 30.12 in 10.0 mi East 11.5 mph 20.7 mph N/A   Mostly Cloudy
6:53 PM 71.1 °F 53.1 °F 53% 30.13 in 10.0 mi East 13.8 mph - N/A   Partly Cloudy
7:53 PM 68.0 °F 52.0 °F 56% 30.15 in 10.0 mi ESE 9.2 mph - N/A   Clear
8:53 PM 64.9 °F 53.1 °F 65% 30.15 in 10.0 mi East 8.1 mph - N/A   Clear
9:53 PM 64.0 °F 53.1 °F 67% 30.16 in 10.0 mi East 6.9 mph - N/A   Clear
10:53 PM 61.0 °F 53.1 °F 75% 30.16 in 10.0 mi East 6.9 mph - N/A   Clear
11:53 PM 61.0 °F 53.1 °F 75% 30.16 in 10.0 mi ESE 5.8 mph - N/A   Clear
12:53 AM 59.0 °F 53.1 °F 81% 30.14 in 10.0 mi ESE 5.8 mph - N/A   Clear